QPF
0.00 0.00 0.00 0.00 0.00 0.00 0.00 0.00 0.00 0.00 0.00 0.00 0.00 0.00 0.00 0.00 0.03 0.02 0.00 0.00 0.00 0.00 0.00 0.00 0.00 0.00 0.00 0.00 0.00 0.00 0.00 0.00 0.00 0.00 0.00 0.00 0.00 0.00 0.00 0.00 0.00 0.00 0.00 0.00 0.00 0.00 0.00 0.00 0.00
0.00 0.00 0.00 0.00 0.00 0.00 0.00 0.00 0.00 0.00 0.00 0.00 0.00 0.00 0.00 0.00 0.00 0.00 0.00 0.00 0.00 0.00 0.00 0.00 0.00 0.00 0.00 0.00 0.00 0.00 0.00 0.00 0.00 0.00 0.00 0.00 0.00 0.00 0.00 0.00 0.00 0.00 0.00 0.00 0.00 0.00 0.00 0.00 0.00
0.00 0.00 0.00 0.00 0.00 0.00 0.00 0.00 0.00 0.00 0.00 0.00 0.00 0.00 0.00 0.00 0.00 0.00 0.00 0.00 0.00 0.00 0.00 0.00 0.00 0.00 0.00 0.00 0.00 0.00 0.00 0.00 0.00 0.00 0.00 0.00 0.00 0.00 0.00 0.00 0.00 0.00 0.00 0.00 0.00 0.00 0.00 0.00 0.00
0.00 0.00 0.00 0.00 0.00 0.00 0.00 0.00 0.00 0.00 0.00 0.00 0.00 0.00 0.00 0.00 0.00 0.00 0.00 0.00 0.00 0.00 0.00 0.00 0.00 0.00 0.00 0.00 0.00 0.00 0.00 0.00 0.00 0.00 0.00 0.00 0.00 0.00 0.00 0.00 0.00 0.00 0.00 0.00 0.00 0.00 0.00 0.00 0.00
0.00 0.00 0.00 0.00 0.00 0.00 0.00 0.00 0.00 0.00 0.00 0.00 0.00 0.03 0.02 0.00 0.00 0.00 0.00 0.00 0.00 0.00 0.00 0.00 0.00 0.00 0.00 0.00 0.00 0.00 0.00 0.00 0.00 0.00 0.00 0.00 0.00 0.00 0.00 0.00 0.00 0.00 0.00 0.00 0.00 0.00 0.00 0.00 0.00
0.00 0.00 0.00 0.00 0.00 0.00 0.00 0.00 0.00 0.00 0.00 0.00 0.00 0.02 0.08 0.00 0.00 0.00 0.00 0.00 0.00 0.00 0.00 0.00 0.00 0.00 0.00 0.00 0.00 0.00 0.00 0.00 0.00 0.00 0.00 0.00 0.00 0.00 0.00 0.00 0.00 0.00 0.00 0.00 0.00 0.00 0.00 0.00 0.00
0.00 0.00 0.00 0.00 0.00 0.00 0.00 0.00 0.00 0.00 0.00 0.00 0.01 0.02 0.03 0.00 0.00 0.00 0.00 0.00 0.00 0.00 0.00 0.00 0.00 0.00 0.00 0.00 0.00 0.00 0.00 0.00 0.00 0.00 0.00 0.00 0.00 0.00 0.00 0.00 0.00 0.00 0.00 0.00 0.00 0.00 0.00 0.00 0.00
0.00 0.00 0.00 0.00 0.00 0.00 0.00 0.00 0.00 0.00 0.00 0.00 0.01 0.01 0.00 0.00 0.00 0.00 0.00 0.00 0.00 0.00 0.00 0.00 0.00 0.00 0.00 0.00 0.00 0.00 0.00 0.00 0.00 0.00 0.00 0.00 0.00 0.00 0.00 0.00 0.00 0.00 0.00 0.00 0.00 0.00 0.00 0.00 0.00
0.00 0.00 0.00 0.00 0.00 0.00 0.00 0.00 0.00 0.00 0.00 0.00 0.00 0.00 0.01 0.00 0.00 0.00 0.00 0.00 0.00 0.00 0.00 0.00 0.00 0.00 0.00 0.00 0.00 0.00 0.00 0.00 0.00 0.00 0.00 0.00 0.00 0.00 0.00 0.00 0.00 0.00 0.00 0.00 0.00 0.00 0.00 0.00 0.00
0.00 0.00 0.00 0.00 0.00 0.00 0.00 0.00 0.00 0.00 0.00 0.02 0.02 0.02 0.00 0.00 0.00 0.00 0.00 0.00 0.00 0.00 0.00 0.00 0.00 0.00 0.00 0.00 0.00 0.00 0.00 0.00 0.00 0.00 0.00 0.00 0.00 0.00 0.00 0.00 0.00 0.00 0.00 0.00 0.00 0.00 0.00 0.00 0.00
0.00 0.00 0.00 0.00 0.00 0.00 0.00 0.00 0.00 0.00 0.00 0.01 0.01 0.00 0.00 0.00 0.00 0.00 0.00 0.00 0.00 0.00 0.00 0.00 0.00 0.00 0.00 0.00 0.00 0.00 0.00 0.00 0.00 0.00 0.00 0.00 0.00 0.00 0.00 0.00 0.00 0.00 0.00 0.00 0.00 0.00 0.00 0.00 0.00
0.00 0.00 0.00 0.00 0.00 0.00 0.00 0.00 0.00 0.00 0.00 0.00 0.00 0.00 0.00 0.00 0.00 0.00 0.00 0.00 0.00 0.00 0.00 0.00 0.00 0.00 0.00 0.00 0.00 0.00 0.00 0.00 0.00 0.00 0.00 0.00 0.00 0.00 0.00 0.00 0.00 0.00 0.00 0.00 0.00 0.00 0.00 0.00 0.00
0.00 0.00 0.00 0.00 0.00 0.00 0.00 0.00 0.00 0.00 0.00 0.00 0.01 0.01 0.00 0.00 0.00 0.00 0.00 0.00 0.00 0.00 0.00 0.00 0.00 0.00 0.00 0.00 0.00 0.00 0.00 0.00 0.00 0.00 0.00 0.00 0.00 0.00 0.00 0.00 0.00 0.00 0.00 0.00 0.00 0.00 0.00 0.00 0.00
0.00 0.00 0.00 0.00 0.00 0.00 0.00 0.00 0.00 0.00 0.00 0.00 0.00 0.00 0.00 0.00 0.00 0.00 0.00 0.00 0.00 0.00 0.00 0.00 0.00 0.00 0.00 0.00 0.00 0.00 0.00 0.00 0.00 0.00 0.00 0.00 0.00 0.00 0.00 0.00 0.00 0.00 0.00 0.00 0.00 0.00 0.00 0.00 0.00
0.00 0.00 0.00 0.00 0.00 0.00 0.00 0.00 0.00 0.00 0.00 0.00 0.00 0.00 0.00 0.00 0.00 0.00 0.00 0.00 0.00 0.01 0.03 0.01 0.00 0.00 0.00 0.00 0.00 0.00 0.00 0.00 0.00 0.00 0.00 0.00 0.00 0.00 0.00 0.00 0.00 0.00 0.00 0.00 0.00 0.00 0.00 0.00 0.00
0.00 0.00 0.00 0.00 0.00 0.00 0.00 0.00 0.00 0.00 0.00 0.00 0.01 0.03 0.00 0.00 0.00 0.00 0.00 0.00 0.00 0.02 0.08 0.09 0.03 0.00 0.00 0.00 0.00 0.00 0.00 0.00 0.00 0.00 0.00 0.00 0.00 0.00 0.00 0.00 0.00 0.00 0.00 0.00 0.00 0.00 0.00 0.00 0.00
0.00 0.00 0.00 0.00 0.00 0.00 0.00 0.00 0.00 0.00 0.00 0.01 0.00 0.01 0.00 0.00 0.02 0.01 0.00 0.00 0.01 0.02 0.04 0.09 0.14 0.05 0.01 0.00 0.00 0.00 0.00 0.00 0.00 0.00 0.00 0.00 0.00 0.00 0.00 0.00 0.00 0.00 0.00 0.00 0.00 0.00 0.00 0.00 0.00
0.00 0.00 0.00 0.00 0.00 0.00 0.00 0.00 0.00 0.00 0.00 0.00 0.02 0.01 0.00 0.01 0.02 0.01 0.00 0.00 0.00 0.05 0.06 0.06 0.09 0.09 0.07 0.04 0.01 0.00 0.00 0.00 0.00 0.00 0.00 0.00 0.00 0.00 0.00 0.00 0.00 0.00 0.00 0.00 0.00 0.00 0.00 0.00 0.00
0.00 0.00 0.00 0.00 0.00 0.00 0.00 0.00 0.00 0.00 0.00 0.05 0.04 0.03 0.02 0.02 0.03 0.01 0.00 0.00 0.01 0.02 0.01 0.03 0.09 0.15 0.17 0.25 0.26 0.19 0.08 0.04 0.01 0.00 0.01 0.00 0.00 0.00 0.00 0.00 0.00 0.00 0.00 0.00 0.00 0.00 0.00 0.00 0.00
0.00 0.00 0.00 0.00 0.00 0.00 0.00 0.00 0.00 0.00 0.00 0.00 0.02 0.04 0.03 0.02 0.01 0.01 0.00 0.01 0.01 0.00 0.00 0.00 0.03 0.09 0.12 0.12 0.22 0.30 0.30 0.22 0.11 0.04 0.00 0.00 0.00 0.00 0.00 0.00 0.00 0.03 0.03 0.04 0.00 0.00 0.00 0.02 0.02
0.00 0.00 0.00 0.00 0.00 0.00 0.00 0.00 0.00 0.00 0.00 0.00 0.02 0.03 0.02 0.00 0.00 0.00 0.00 0.00 0.00 0.00 0.00 0.00 0.00 0.01 0.14 0.26 0.41 0.34 0.27 0.21 0.22 0.27 0.13 0.01 0.01 0.05 0.13 0.12 0.24 0.18 0.17 0.09 0.00 0.00 0.01 0.00 0.01
0.00 0.00 0.00 0.00 0.00 0.00 0.00 0.00 0.00 0.00 0.00 0.00 0.00 0.02 0.00 0.00 0.00 0.00 0.00 0.00 0.00 0.00 0.00 0.00 0.00 0.00 0.08 0.28 0.37 0.42 0.43 0.45 0.34 0.22 0.10 0.09 0.18 0.29 0.33 0.29 0.25 0.09 0.01 0.00 0.00 0.01 0.02 0.02 0.02
0.00 0.00 0.00 0.00 0.00 0.00 0.00 0.00 0.00 0.00 0.00 0.00 0.00 0.00 0.00 0.00 0.00 0.00 0.00 0.00 0.00 0.00 0.00 0.00 0.02 0.11 0.22 0.41 0.46 0.35 0.26 0.14 0.20 0.28 0.23 0.26 0.17 0.11 0.09 0.02 0.02 0.00 0.00 0.00 0.00 0.00 0.00 0.00 0.00
0.00 0.00 0.00 0.00 0.00 0.00 0.00 0.00 0.00 0.00 0.00 0.00 0.00 0.00 0.00 0.00 0.00 0.00 0.00 0.00 0.00 0.02 0.02 0.05 0.13 0.26 0.25 0.27 0.22 0.09 0.04 0.11 0.14 0.10 0.07 0.04 0.01 0.00 0.00 0.00 0.00 0.00 0.00 0.00 0.00 0.00 0.00 0.00 0.00
0.00 0.00 0.00 0.00 0.00 0.00 0.00 0.00 0.00 0.00 0.00 0.00 0.00 0.00 0.00 0.00 0.00 0.00 0.00 0.00 0.01 0.02 0.02 0.02 0.04 0.07 0.09 0.10 0.03 0.00 0.00 0.01 0.01 0.00 0.00 0.00 0.00 0.00 0.00 0.00 0.00 0.00 0.00 0.00 0.00 0.00 0.00 0.00 0.00
0.00 0.00 0.00 0.00 0.00 0.00 0.00 0.00 0.00 0.00 0.00 0.00 0.00 0.00 0.00 0.00 0.00 0.00 0.00 0.00 0.01 0.00 0.01 0.01 0.00 0.01 0.02 0.01 0.00 0.00 0.00 0.00 0.00 0.00 0.00 0.00 0.00 0.00 0.00 0.00 0.00 0.00 0.00 0.00 0.00 0.00 0.00 0.00 0.00
0.00 0.00 0.00 0.00 0.00 0.00 0.00 0.00 0.00 0.00 0.00 0.00 0.00 0.00 0.00 0.00 0.00 0.00 0.00 0.01 0.01 0.00 0.01 0.01 0.00 0.01 0.02 0.01 0.00 0.00 0.00 0.00 0.00 0.00 0.00 0.00 0.00 0.00 0.00 0.00 0.00 0.00 0.00 0.00 0.00 0.00 0.00 0.00 0.00
0.00 0.00 0.00 0.00 0.00 0.00 0.00 0.00 0.00 0.00 0.00 0.00 0.00 0.00 0.00 0.00 0.00 0.00 0.00 0.00 0.01 0.02 0.04 0.01 0.00 0.00 0.01 0.00 0.00 0.00 0.00 0.00 0.00 0.00 0.00 0.00 0.00 0.00 0.00 0.00 0.00 0.00 0.00 0.00 0.00 0.00 0.00 0.00 0.00
0.01 0.00 0.00 0.00 0.00 0.00 0.00 0.00 0.00 0.00 0.00 0.00 0.00 0.00 0.00 0.00 0.00 0.00 0.00 0.01 0.02 0.02 0.01 0.00 0.00 0.00 0.00 0.00 0.00 0.00 0.00 0.00 0.00 0.00 0.00 0.00 0.00 0.00 0.00 0.00 0.00 0.00 0.00 0.00 0.00 0.00 0.00 0.00 0.00
0.00 0.00 0.00 0.00 0.00 0.00 0.00 0.00 0.00 0.00 0.00 0.00 0.00 0.00 0.00 0.00 0.00 0.00 0.00 0.02 0.01 0.00 0.01 0.02 0.01 0.00 0.00 0.00 0.00 0.00 0.00 0.00 0.00 0.00 0.00 0.00 0.00 0.00 0.00 0.00 0.00 0.00 0.00 0.00 0.00 0.00 0.00 0.00 0.00
MSLP
1010.11 1009.87 1010.10 1010.34 1011.52 1011.74 1010.88 1009.18 1007.32 1006.44 1006.00 1005.76 1005.38 1005.54 1005.41 1005.03 1005.02 1006.30 1005.68 1006.49 1006.98 1007.49 1007.98 1008.51 1008.81 1008.95 1009.14 1009.58 1010.04 1010.34 1010.64 1010.93 1011.15 1011.36 1011.62 1011.79 1012.01 1012.15 1012.32 1012.59 1012.78 1013.03 1013.16 1013.14 1013.21 1013.36 1013.52 1013.65 1013.64
1010.20 1009.83 1010.23 1010.97 1011.72 1011.72 1010.08 1008.37 1007.10 1006.18 1005.59 1005.60 1005.59 1005.64 1005.47 1004.86 1004.47 1004.91 1006.02 1007.07 1007.14 1007.74 1008.13 1008.54 1009.03 1009.16 1009.24 1009.60 1010.19 1010.50 1010.82 1011.12 1011.31 1011.46 1011.55 1011.82 1012.13 1012.38 1012.57 1012.66 1012.80 1012.87 1013.16 1013.44 1013.49 1013.54 1013.51 1013.56 1013.71
1010.35 1010.19 1010.84 1011.45 1011.44 1010.42 1009.06 1007.74 1006.91 1006.34 1005.77 1005.77 1005.46 1005.34 1005.34 1005.18 1003.56 1004.13 1005.07 1006.60 1007.80 1008.14 1008.30 1008.52 1009.10 1009.25 1009.41 1009.72 1010.21 1010.63 1010.94 1011.19 1011.50 1011.76 1011.76 1011.83 1012.09 1012.39 1012.65 1012.82 1012.98 1013.09 1013.15 1013.40 1013.54 1013.62 1013.63 1013.63 1013.65
1010.59 1011.03 1011.61 1011.43 1010.49 1009.11 1007.96 1007.01 1006.33 1006.24 1005.89 1005.68 1005.52 1005.70 1005.53 1005.04 1004.90 1004.44 1005.67 1006.59 1007.90 1008.30 1008.45 1008.52 1008.95 1009.33 1009.51 1009.84 1010.23 1010.62 1010.94 1011.18 1011.50 1011.85 1012.13 1012.17 1012.21 1012.40 1012.73 1013.02 1013.22 1013.33 1013.37 1013.53 1013.65 1013.77 1013.76 1013.73 1013.71
1010.96 1011.79 1012.17 1011.49 1009.67 1008.24 1007.57 1006.54 1005.94 1006.03 1005.95 1005.78 1005.81 1005.78 1005.58 1005.23 1005.65 1005.62 1006.37 1006.99 1007.95 1008.48 1008.57 1008.78 1009.15 1009.37 1009.53 1009.96 1010.42 1010.77 1011.14 1011.44 1011.65 1011.80 1012.11 1012.43 1012.63 1012.79 1012.98 1013.15 1013.44 1013.51 1013.64 1013.72 1013.82 1013.83 1013.85 1013.84 1013.79
1011.56 1012.24 1012.40 1011.21 1009.37 1007.70 1007.18 1006.82 1006.20 1006.02 1005.98 1006.13 1006.04 1005.75 1005.47 1005.57 1006.27 1006.23 1007.18 1007.52 1008.67 1008.52 1008.78 1008.96 1009.50 1009.71 1009.71 1010.05 1010.57 1010.85 1011.14 1011.42 1011.68 1011.92 1012.15 1012.48 1012.89 1013.13 1013.29 1013.45 1013.61 1013.71 1013.81 1013.87 1013.90 1013.95 1014.00 1013.96 1013.97
1011.56 1012.24 1011.76 1010.62 1009.05 1007.35 1006.68 1006.21 1005.85 1005.93 1005.52 1005.46 1005.06 1004.96 1004.47 1005.50 1006.43 1006.48 1006.94 1008.33 1009.12 1008.99 1009.06 1008.96 1009.48 1009.86 1009.98 1010.14 1010.45 1010.80 1011.20 1011.53 1011.93 1012.16 1012.40 1012.64 1012.98 1013.34 1013.61 1013.83 1013.92 1014.02 1014.05 1014.01 1014.04 1014.07 1014.06 1014.07 1013.97
1011.16 1011.59 1011.15 1009.90 1008.47 1007.04 1005.91 1005.64 1004.94 1005.47 1004.47 1003.37 1004.51 1004.48 1005.16 1005.06 1006.57 1006.88 1007.45 1008.64 1009.28 1009.26 1009.40 1009.31 1009.62 1009.97 1010.32 1010.49 1010.65 1010.96 1011.45 1011.77 1012.09 1012.50 1012.80 1013.03 1013.22 1013.47 1013.64 1013.83 1014.00 1013.97 1014.09 1014.07 1014.01 1014.01 1014.10 1014.13 1013.95
1010.49 1011.15 1010.20 1009.02 1008.19 1007.11 1005.97 1005.51 1004.33 1003.58 1003.58 1003.61 1003.62 1003.51 1003.54 1004.78 1006.67 1007.40 1008.01 1008.85 1009.35 1009.43 1009.55 1009.63 1009.77 1010.10 1010.62 1010.83 1011.08 1011.39 1011.75 1012.11 1012.42 1012.77 1013.02 1013.34 1013.56 1013.66 1013.71 1013.96 1014.06 1014.17 1014.19 1014.27 1014.21 1014.07 1013.94 1013.94 1013.88
1010.42 1010.31 1009.38 1008.22 1007.38 1006.57 1006.42 1005.35 1004.42 1003.82 1004.02 1003.59 1004.08 1003.84 1004.50 1004.60 1005.97 1007.07 1007.68 1008.53 1009.07 1009.06 1009.43 1009.67 1009.99 1010.25 1010.56 1010.91 1011.31 1011.79 1012.20 1012.66 1012.88 1013.18 1013.37 1013.67 1013.89 1014.11 1014.04 1014.04 1014.08 1014.24 1014.16 1014.20 1014.22 1014.07 1013.96 1013.87 1013.87
1009.86 1009.55 1008.78 1007.76 1007.11 1006.85 1006.67 1005.98 1004.75 1004.29 1004.30 1003.23 1003.63 1004.32 1004.85 1005.21 1006.05 1006.90 1007.63 1008.03 1008.81 1009.43 1009.50 1009.83 1010.19 1010.50 1011.02 1011.23 1011.44 1011.87 1012.33 1012.64 1013.01 1013.35 1013.63 1013.94 1014.08 1014.24 1014.33 1014.36 1014.23 1014.21 1014.31 1014.12 1014.08 1014.05 1014.08 1013.93 1013.73
1010.04 1009.11 1008.67 1007.80 1007.16 1007.01 1006.76 1006.29 1005.11 1004.21 1003.92 1003.09 1003.29 1003.13 1003.68 1005.49 1006.49 1006.59 1007.10 1007.85 1008.56 1009.32 1009.69 1010.15 1010.53 1010.99 1011.40 1011.61 1011.75 1011.97 1012.35 1012.77 1013.07 1013.27 1013.49 1013.93 1014.24 1014.44 1014.51 1014.52 1014.35 1014.31 1014.34 1014.32 1014.20 1014.12 1013.96 1013.76 1013.43
1010.05 1009.25 1008.50 1007.95 1007.42 1006.97 1006.96 1006.37 1005.57 1004.19 1003.68 1003.45 1003.54 1004.39 1003.85 1004.94 1005.56 1005.67 1006.22 1007.28 1008.10 1008.68 1009.55 1010.35 1010.87 1011.40 1011.75 1011.94 1012.00 1012.10 1012.23 1012.38 1012.65 1013.03 1013.18 1013.37 1013.74 1013.98 1013.94 1013.96 1013.98 1014.04 1014.00 1014.10 1014.07 1013.94 1013.74 1013.46 1012.99
1009.88 1009.60 1008.60 1007.85 1007.55 1007.33 1006.78 1006.01 1005.44 1003.31 1003.20 1002.94 1002.81 1003.68 1003.80 1004.39 1004.88 1006.04 1006.64 1007.52 1008.34 1008.91 1009.53 1009.97 1010.59 1011.16 1011.60 1011.83 1011.98 1012.16 1012.23 1012.19 1012.50 1012.68 1012.88 1013.02 1013.22 1013.66 1013.91 1013.94 1013.80 1013.41 1013.36 1013.44 1013.65 1013.64 1013.60 1013.22 1012.90
1009.82 1009.57 1008.55 1007.68 1007.52 1007.16 1006.19 1005.58 1003.40 1002.80 1003.59 1003.40 1003.31 1002.92 1003.96 1004.69 1005.29 1005.90 1006.63 1007.55 1008.17 1009.37 1010.14 1010.87 1010.75 1010.78 1011.31 1011.45 1011.74 1012.13 1012.11 1012.29 1012.29 1012.40 1012.68 1012.80 1013.03 1013.32 1013.46 1013.74 1013.68 1013.35 1013.25 1013.28 1013.37 1013.28 1013.04 1012.93 1012.62
1010.06 1009.53 1008.68 1007.23 1007.05 1006.57 1006.31 1004.16 1003.06 1002.83 1002.95 1002.65 1002.72 1003.63 1004.80 1005.20 1005.62 1006.33 1006.70 1007.79 1008.58 1009.59 1010.12 1010.85 1011.06 1011.55 1011.58 1011.41 1011.68 1011.96 1012.08 1012.07 1012.10 1012.09 1012.35 1012.60 1012.71 1013.14 1013.30 1013.32 1013.15 1013.07 1013.20 1013.17 1013.38 1013.22 1012.94 1012.85 1012.65
1010.52 1009.73 1008.53 1007.37 1006.23 1006.13 1005.40 1003.63 1002.73 1002.48 1002.78 1002.40 1002.57 1003.69 1004.70 1005.77 1006.62 1006.84 1007.24 1007.95 1008.44 1009.09 1010.12 1010.63 1010.72 1011.10 1011.83 1012.12 1011.96 1011.95 1011.96 1012.30 1012.06 1012.13 1012.20 1012.35 1012.57 1012.85 1013.12 1013.28 1013.11 1013.01 1013.21 1013.16 1013.23 1013.10 1012.99 1012.86 1012.69
1010.81 1010.08 1008.80 1007.40 1006.36 1005.46 1004.73 1004.02 1002.94 1002.33 1002.23 1002.56 1003.09 1004.16 1004.73 1005.63 1006.96 1007.11 1007.58 1007.98 1008.52 1008.89 1009.28 1009.87 1010.46 1010.95 1011.78 1012.77 1012.87 1012.57 1012.33 1012.33 1012.14 1012.11 1011.91 1011.87 1011.94 1012.11 1012.38 1012.65 1012.70 1012.91 1013.17 1013.01 1013.06 1013.32 1013.13 1013.13 1013.11
1011.17 1010.56 1009.61 1007.98 1006.32 1005.73 1004.61 1004.74 1003.55 1002.75 1002.65 1002.81 1003.48 1004.62 1005.46 1006.42 1007.34 1007.68 1007.80 1008.13 1008.40 1008.80 1008.94 1009.62 1010.19 1010.55 1011.68 1012.83 1013.30 1012.83 1012.42 1012.59 1012.12 1011.86 1011.76 1011.49 1011.40 1011.56 1012.22 1012.84 1012.89 1012.97 1013.37 1013.49 1013.46 1013.50 1013.50 1013.32 1013.25
1011.47 1010.88 1009.75 1008.14 1006.49 1005.89 1004.76 1004.31 1003.42 1003.11 1002.81 1002.82 1003.22 1004.63 1005.55 1007.06 1007.65 1007.99 1008.21 1008.04 1008.06 1008.22 1008.44 1008.88 1009.46 1009.89 1009.35 1011.71 1011.59 1012.48 1012.14 1011.88 1012.07 1012.01 1012.06 1012.12 1011.91 1011.84 1012.11 1012.76 1013.07 1013.51 1013.80 1013.71 1013.70 1013.74 1013.73 1013.72 1013.78
1011.08 1010.52 1009.79 1008.80 1007.19 1005.44 1004.79 1004.44 1003.90 1003.11 1002.83 1002.67 1003.05 1004.20 1005.31 1005.91 1007.39 1008.09 1008.21 1007.99 1007.95 1008.13 1008.34 1008.98 1009.48 1009.97 1010.14 1010.75 1012.55 1012.91 1010.43 1012.00 1011.49 1012.18 1012.57 1012.56 1012.42 1012.68 1013.11 1013.08 1013.59 1013.84 1013.94 1014.08 1014.07 1014.18 1014.16 1014.10 1013.92
1010.61 1009.92 1009.54 1008.87 1008.08 1006.25 1004.54 1004.53 1003.70 1003.00 1003.03 1002.78 1003.23 1004.41 1005.00 1006.13 1006.77 1007.30 1007.60 1007.75 1007.82 1007.81 1008.60 1008.96 1009.70 1010.40 1010.68 1010.45 1011.04 1011.98 1011.06 1010.92 1011.69 1011.74 1012.90 1013.34 1013.09 1013.31 1013.68 1013.84 1013.89 1014.25 1014.48 1014.72 1014.81 1014.93 1014.67 1014.25 1014.49
1010.00 1009.63 1009.42 1008.87 1008.23 1007.24 1004.74 1004.62 1003.00 1002.73 1003.20 1003.09 1003.36 1003.59 1004.66 1005.29 1006.05 1006.81 1007.12 1007.10 1007.45 1008.63 1009.53 1009.89 1010.21 1010.93 1010.44 1011.28 1011.98 1009.49 1010.60 1011.38 1013.14 1013.38 1013.18 1013.89 1013.94 1014.39 1014.66 1014.66 1014.57 1015.09 1015.22 1015.55 1015.47 1015.49 1015.57 1015.52 1015.49
1009.87 1009.88 1009.37 1008.88 1008.40 1007.10 1004.61 1003.77 1002.99 1002.48 1002.00 1002.76 1003.37 1003.45 1004.10 1004.73 1005.50 1006.03 1006.71 1007.71 1008.49 1009.14 1009.71 1010.16 1010.94 1011.34 1011.62 1012.17 1011.64 1011.01 1011.21 1012.80 1013.58 1014.10 1014.74 1015.30 1015.48 1015.65 1015.45 1015.28 1015.62 1015.93 1016.05 1016.16 1016.22 1016.31 1016.28 1016.28 1016.21
1010.06 1010.36 1009.47 1008.95 1007.84 1005.85 1003.85 1003.62 1001.68 1000.62 1001.34 1001.86 1002.94 1003.73 1004.27 1004.32 1005.17 1006.13 1006.85 1007.57 1008.54 1009.23 1009.62 1010.36 1011.23 1012.28 1012.31 1012.19 1012.20 1012.65 1012.93 1013.84 1014.51 1015.49 1016.37 1016.40 1016.51 1016.55 1016.39 1016.28 1016.41 1016.49 1016.68 1016.65 1016.81 1016.93 1017.06 1017.08 1017.01
1009.84 1010.35 1009.13 1007.71 1006.72 1005.19 1003.53 1002.46 1001.01 1000.04 1000.62 1001.06 1002.01 1002.93 1004.26 1004.71 1005.06 1005.93 1006.95 1007.65 1008.42 1009.11 1010.08 1011.09 1011.92 1012.50 1012.68 1013.15 1013.63 1013.77 1014.71 1015.19 1016.51 1016.10 1017.21 1016.91 1016.96 1016.82 1016.93 1016.78 1016.95 1016.97 1017.26 1017.43 1017.55 1017.44 1017.55 1017.52 1017.35
1010.06 1010.28 1009.16 1008.15 1005.98 1004.82 1003.41 1001.60 1001.12 1000.21 1000.87 1001.45 1002.26 1003.17 1004.42 1005.00 1005.61 1006.37 1007.30 1008.16 1008.66 1009.98 1010.78 1010.98 1011.96 1012.92 1013.35 1013.91 1014.36 1015.12 1015.59 1016.43 1016.74 1017.11 1016.75 1016.67 1016.87 1017.11 1017.47 1017.54 1017.68 1017.97 1017.97 1018.17 1018.13 1018.13 1018.11 1017.86 1017.88
1008.50 1009.18 1009.13 1007.69 1005.81 1004.68 1003.11 1001.61 1001.06 1001.01 1001.14 1001.71 1002.60 1003.72 1005.07 1005.52 1006.09 1006.98 1007.91 1009.03 1009.94 1010.72 1011.41 1012.27 1012.97 1013.82 1014.49 1014.71 1015.42 1015.89 1016.56 1016.72 1016.96 1017.34 1017.49 1017.63 1017.74 1018.02 1018.18 1017.97 1018.35 1018.77 1018.82 1018.68 1018.71 1018.55 1018.50 1018.23 1018.24
1008.69 1009.10 1008.12 1006.19 1004.55 1003.56 1003.01 1001.68 999.98 1000.18 1000.90 1001.72 1003.13 1004.13 1004.96 1005.73 1006.47 1007.64 1008.85 1010.32 1011.02 1011.68 1012.24 1013.18 1014.06 1014.53 1015.05 1015.57 1016.18 1016.56 1017.09 1017.26 1017.58 1017.94 1018.26 1018.26 1018.27 1018.41 1018.61 1019.00 1019.28 1019.36 1019.23 1019.12 1018.83 1018.91 1018.81 1018.93 1018.76
1007.34 1007.29 1006.53 1005.40 1004.58 1003.49 1002.50 1001.87 1000.32 1000.21 1000.95 1002.06 1003.70 1004.67 1005.63 1006.01 1007.19 1008.43 1009.59 1011.13 1011.83 1012.50 1013.46 1014.11 1014.97 1015.46 1015.99 1016.43 1016.91 1017.52 1017.84 1018.20 1018.51 1018.93 1018.98 1019.08 1019.15 1019.30 1019.39 1019.49 1019.49 1019.34 1019.43 1019.50 1019.34 1019.43 1019.43 1019.12 1018.80
Thickness
5759 5763 5766 5761 5733 5727 5728 5754 5785 5790 5794 5805 5813 5807 5807 5816 5814 5788 5838 5834 5835 5835 5833 5832 5831 5831 5831 5827 5823 5821 5821 5821 5820 5819 5818 5818 5816 5815 5813 5810 5808 5805 5802 5802 5800 5797 5794 5792 5790
5752 5758 5754 5740 5715 5710 5734 5769 5780 5792 5801 5803 5808 5806 5808 5809 5833 5834 5830 5828 5833 5832 5831 5830 5828 5828 5830 5828 5822 5820 5820 5819 5819 5819 5819 5817 5815 5813 5811 5809 5807 5806 5802 5798 5797 5795 5794 5792 5789
5743 5748 5734 5720 5709 5722 5744 5771 5780 5788 5795 5797 5799 5812 5811 5805 5839 5836 5844 5831 5826 5826 5828 5830 5825 5827 5828 5826 5822 5819 5818 5818 5817 5816 5817 5818 5816 5813 5810 5808 5806 5803 5802 5798 5796 5793 5791 5790 5788
5731 5727 5721 5706 5719 5745 5765 5776 5785 5782 5791 5799 5801 5793 5810 5823 5827 5839 5837 5832 5824 5825 5826 5829 5827 5825 5826 5824 5823 5820 5819 5818 5817 5815 5814 5814 5814 5812 5809 5806 5803 5801 5799 5796 5793 5790 5789 5788 5785
5719 5707 5695 5698 5726 5756 5771 5781 5786 5779 5782 5786 5795 5791 5794 5821 5825 5836 5829 5827 5822 5822 5825 5826 5825 5824 5825 5823 5821 5819 5817 5816 5816 5816 5814 5811 5811 5809 5806 5804 5800 5798 5795 5793 5790 5789 5787 5785 5783
5700 5695 5679 5699 5724 5762 5771 5773 5778 5775 5777 5776 5784 5790 5794 5821 5817 5826 5823 5824 5817 5820 5821 5824 5821 5821 5823 5821 5818 5818 5816 5816 5815 5814 5813 5810 5806 5805 5802 5799 5797 5795 5793 5791 5789 5786 5784 5782 5780
5690 5681 5684 5703 5729 5751 5765 5773 5771 5768 5771 5770 5797 5789 5810 5812 5815 5821 5826 5816 5810 5816 5818 5823 5820 5819 5819 5820 5819 5817 5814 5813 5811 5811 5809 5808 5805 5801 5798 5795 5793 5791 5789 5788 5786 5784 5783 5780 5778
5686 5681 5688 5701 5724 5733 5768 5772 5780 5767 5769 5801 5801 5790 5792 5819 5815 5816 5818 5810 5808 5813 5814 5819 5817 5817 5816 5816 5816 5815 5812 5810 5809 5806 5804 5803 5802 5799 5797 5794 5791 5790 5788 5787 5786 5784 5780 5776 5775
5686 5669 5676 5704 5718 5734 5756 5754 5779 5792 5778 5787 5801 5811 5821 5822 5814 5806 5805 5805 5806 5809 5812 5815 5817 5814 5812 5812 5811 5810 5808 5806 5805 5802 5801 5798 5797 5796 5795 5791 5790 5787 5786 5783 5781 5779 5777 5775 5773
5666 5658 5685 5711 5725 5736 5737 5752 5764 5770 5764 5776 5787 5807 5812 5815 5809 5801 5801 5801 5804 5810 5812 5815 5815 5815 5813 5810 5808 5805 5802 5800 5799 5797 5796 5794 5792 5790 5790 5789 5787 5784 5783 5780 5777 5776 5775 5773 5771
5663 5661 5689 5708 5723 5727 5726 5737 5758 5756 5752 5776 5779 5792 5799 5806 5806 5801 5802 5802 5804 5805 5810 5813 5812 5810 5807 5807 5805 5803 5800 5799 5796 5794 5792 5790 5788 5786 5785 5783 5784 5782 5779 5778 5775 5774 5771 5770 5770
5648 5667 5682 5699 5712 5715 5721 5729 5738 5753 5758 5786 5796 5805 5807 5798 5796 5802 5803 5804 5806 5803 5805 5807 5808 5805 5802 5801 5801 5800 5798 5795 5794 5793 5791 5788 5784 5781 5780 5778 5779 5778 5776 5774 5772 5771 5769 5768 5769
5639 5654 5672 5688 5695 5705 5711 5716 5726 5746 5764 5776 5787 5785 5800 5799 5800 5809 5810 5804 5803 5804 5803 5801 5800 5797 5797 5797 5798 5799 5800 5800 5798 5794 5793 5791 5787 5785 5783 5781 5778 5776 5775 5772 5770 5768 5767 5767 5769
5629 5640 5657 5674 5682 5689 5701 5714 5725 5756 5765 5773 5787 5787 5797 5802 5805 5802 5802 5799 5798 5799 5798 5799 5798 5796 5795 5796 5797 5797 5797 5799 5797 5796 5793 5791 5788 5784 5779 5777 5776 5778 5777 5773 5769 5767 5765 5765 5766
5619 5621 5646 5662 5673 5679 5700 5701 5738 5758 5750 5758 5775 5792 5790 5795 5801 5799 5799 5796 5797 5789 5787 5784 5788 5793 5792 5795 5795 5794 5794 5793 5794 5792 5789 5787 5784 5781 5778 5773 5771 5773 5771 5769 5767 5765 5764 5763 5762
5602 5614 5625 5654 5666 5681 5692 5702 5738 5744 5748 5758 5775 5778 5775 5785 5792 5792 5797 5792 5791 5785 5785 5783 5785 5783 5784 5788 5788 5787 5787 5788 5789 5788 5785 5781 5780 5775 5773 5773 5772 5770 5767 5765 5763 5761 5759 5758 5757
5577 5589 5615 5642 5667 5675 5689 5708 5734 5741 5747 5755 5769 5770 5770 5771 5777 5786 5790 5791 5790 5787 5781 5784 5787 5784 5779 5775 5776 5778 5777 5776 5780 5780 5780 5777 5774 5771 5768 5766 5766 5764 5761 5758 5754 5752 5751 5748 5746
5570 5584 5607 5627 5655 5675 5682 5698 5718 5737 5745 5752 5758 5760 5765 5766 5768 5777 5782 5787 5787 5785 5785 5784 5783 5780 5773 5763 5756 5761 5766 5765 5768 5772 5776 5775 5773 5770 5767 5764 5763 5757 5752 5750 5747 5742 5741 5737 5733
5555 5561 5577 5612 5648 5659 5678 5684 5704 5723 5732 5738 5745 5748 5753 5753 5756 5766 5774 5780 5783 5781 5782 5779 5778 5776 5767 5755 5742 5741 5749 5756 5763 5768 5768 5772 5775 5771 5763 5755 5752 5749 5742 5738 5736 5733 5729 5726 5723
5543 5547 5567 5604 5640 5651 5664 5680 5700 5714 5725 5733 5742 5741 5744 5739 5747 5754 5764 5774 5778 5780 5781 5779 5776 5774 5779 5750 5738 5737 5750 5749 5753 5759 5761 5761 5763 5761 5755 5747 5743 5736 5732 5729 5725 5721 5719 5715 5710
5540 5547 5565 5587 5619 5647 5655 5664 5683 5706 5720 5729 5740 5746 5747 5749 5743 5746 5755 5766 5772 5775 5778 5773 5771 5766 5761 5759 5743 5747 5734 5747 5750 5747 5746 5749 5749 5744 5738 5737 5730 5724 5722 5717 5712 5711 5707 5702 5701
5532 5557 5568 5582 5593 5604 5650 5631 5671 5694 5707 5722 5729 5732 5742 5743 5747 5749 5755 5760 5767 5776 5769 5769 5762 5754 5753 5760 5763 5735 5735 5738 5737 5732 5735 5732 5734 5730 5723 5721 5719 5715 5710 5706 5702 5698 5696 5694 5686
5537 5552 5559 5574 5585 5591 5630 5635 5682 5689 5691 5709 5720 5733 5737 5747 5747 5750 5754 5762 5767 5761 5753 5751 5752 5748 5749 5745 5741 5739 5740 5743 5729 5727 5730 5720 5721 5718 5713 5711 5709 5702 5698 5692 5689 5684 5679 5673 5670
5536 5538 5553 5573 5574 5571 5622 5641 5654 5675 5706 5710 5718 5730 5741 5746 5747 5752 5754 5752 5753 5751 5749 5745 5739 5738 5737 5731 5739 5738 5738 5730 5725 5719 5715 5710 5706 5704 5703 5701 5694 5689 5684 5678 5672 5666 5662 5657 5652
5519 5521 5541 5552 5556 5577 5635 5643 5667 5715 5713 5719 5718 5724 5736 5749 5748 5748 5747 5747 5746 5745 5745 5740 5734 5723 5727 5730 5730 5728 5727 5720 5716 5705 5698 5697 5693 5690 5689 5687 5682 5677 5671 5665 5659 5653 5647 5641 5635
5514 5520 5546 5558 5561 5596 5636 5638 5676 5716 5722 5730 5729 5733 5734 5742 5748 5748 5745 5743 5745 5744 5739 5731 5726 5721 5720 5718 5715 5717 5708 5706 5691 5698 5686 5686 5685 5682 5679 5676 5670 5665 5657 5649 5643 5639 5633 5627 5623
5511 5523 5548 5563 5602 5604 5618 5668 5692 5704 5708 5718 5720 5729 5729 5736 5736 5737 5736 5733 5737 5732 5729 5729 5720 5714 5712 5710 5705 5699 5698 5690 5689 5684 5687 5684 5680 5676 5667 5661 5656 5649 5643 5636 5631 5626 5621 5618 5612
5531 5542 5544 5555 5573 5593 5620 5648 5651 5678 5701 5711 5715 5713 5715 5726 5730 5730 5727 5722 5720 5719 5717 5713 5708 5701 5696 5696 5692 5690 5685 5685 5684 5678 5675 5671 5668 5660 5655 5652 5644 5634 5629 5626 5622 5618 5613 5610 5604
5525 5523 5550 5574 5596 5594 5602 5636 5688 5703 5712 5715 5705 5713 5721 5722 5724 5720 5715 5708 5707 5704 5706 5702 5696 5693 5690 5687 5684 5682 5678 5676 5672 5668 5664 5661 5657 5651 5645 5637 5630 5625 5621 5618 5616 5611 5606 5599 5594
5541 5548 5564 5579 5604 5613 5623 5638 5690 5703 5710 5705 5705 5712 5715 5718 5713 5709 5705 5698 5696 5695 5693 5690 5684 5681 5678 5676 5674 5670 5667 5664 5660 5655 5652 5647 5641 5636 5633 5629 5625 5623 5617 5612 5607 5601 5594 5591 5588